[ hide orbit diagram ]
For accurate long-term ephemerides, please instead use our Horizons system.This orbit viewer was implemented using two-body methods, and hence should not be used for determining accurate long-term trajectories (over several years or decades) or planetary encounter circumstances.
[ revert to old Java-based viewer ]
Orbital Elements at Epoch 2458600.5 (2019-Apr-27.0) TDB
Reference: JPL 18 (heliocentric ecliptic J2000)
Element | Value | Uncertainty (1-sigma) | Units |
e | .0796551642641759 | 4.6856e-08 | |
a | 3.435033162848858 | 4.3324e-08 | au |
q | 3.161415032009241 | 1.5136e-07 | au |
i | 9.052900303306258 | 6.3932e-06 | deg |
node | 124.5595148633883 | 3.5772e-05 | deg |
peri | 129.3861512055197 | 5.5851e-05 | deg |
M | 54.81746387000739 | 4.3565e-05 | deg |
tp | 2458246.411952991932 (2018-May-07.91195299) | 0.00028089 | TDB |
period | 2325.384793889543 6.37 | 4.3994e-05 1.204e-07 | d yr |
n | .1548130876859515 | 2.9289e-09 | deg/d |
Q | 3.708651293688475 | 4.6776e-08 | au |
|
| | Orbit Determination Parameters
Additional Information
|
[ show covariance matrix ]
Physical Parameter Table
Parameter |
Symbol |
Value |
Units |
Sigma |
Reference |
Notes |
absolute magnitude |
H |
14.6 |
|
n/a |
MPO320503 |
|
diameter |
diameter |
7.940 |
km |
0.436 |
urn:nasa:pds:neowise_diameters_albedos::2.0[mainbelt] (http://adsabs.harvard.edu/abs/2011ApJ...741...68M) |
|
geometric albedo |
albedo |
0.049 |
|
0.011 |
urn:nasa:pds:neowise_diameters_albedos::2.0[mainbelt] (http://adsabs.harvard.edu/abs/2011ApJ...741...68M) |
|
|
136367 Gierlinger | Discovered 2004 Mar. 10 at Altschwendt. |
Richard Gierlinger (b. 1967) is an Austrian amateur astronomer and telescope builder, who has discovered numerous minor planets at his private observatory. |
NOTE: some special characters may not display properly (any characters within {} are an attempt to place the proper accent above a character) |
Reference: MPC batch dated 2013-07-22 | Last Updated: 2014-08-13 |
|
[ show close-approach data ]
|